EXPRESS-AM6

Last updated on Thu Oct 30 2025 00:02:49 GMT+0000 (Coordinated Universal Time)

1 40277U 14064A 25302.48156443 .00000108 00000+0 00000+0 0 9999 2 40277 0.0137 248.7723 0001243 335.8133 39.8710 1.00272178 39257
UTC large
Height (km)
Speed (km/s)
/
Latitude / Longitude
Inclination (degrees)
Orbital Period (minutes)
Azimuth
Elevation
Range (km)
Doppler Factor

Next 0 passes for location: London (51.5072 / 0.1276)

Sorry there are no passes over London.